• In United Kingdom
  • List of Countries
  • For 7 days
  • Water Temperature
  • Satellite Maps
  • Weather Map
  • Weather Widgets
  • user-avatar
    Login

    Hourly Weather Linz

    Today, 19 August, Saturday

    Time Temperature Precipitation Wind Pressure Humidity
    00:00 +21°C° 1.2 mm 3 mps 733 mmHg 89%
    01:00 +19°C° 0 mm 4 mps 734 mmHg 95%
    02:00 +19°C° 0.3 mm 3 mps 734 mmHg 95%
    03:00 +18°C° 0.3 mm 3 mps 734 mmHg 95%
    04:00 +18°C° 0.3 mm 2 mps 734 mmHg 95%
    05:00 +18°C° 1.2 mm 2 mps 734 mmHg 96%
    06:00 +18°C° 1.2 mm 2 mps 735 mmHg 96%
    07:00 +18°C° 0 mm 1 mps 735 mmHg 96%
    08:00 +18°C° 2.6 mm 1 mps 735 mmHg 96%
    09:00 +19°C° 2.6 mm 1 mps 735 mmHg 96%
    10:00 +19°C° 2.6 mm 1 mps 735 mmHg 96%
    11:00 +19°C° 1.9 mm 1 mps 736 mmHg 95%
    12:00 +19°C° 1.9 mm 1 mps 736 mmHg 95%
    13:00 +19°C° 1.9 mm 1 mps 736 mmHg 94%
    14:00 +18°C° 1.6 mm 1 mps 736 mmHg 95%
    15:00 +18°C° 1.6 mm 1 mps 736 mmHg 95%
    16:00 +18°C° 1.6 mm 1 mps 736 mmHg 95%
    17:00 +18°C° 1.6 mm 1 mps 736 mmHg 95%
    18:00 +16°C° 1.6 mm 1 mps 736 mmHg 96%
    19:00 +16°C° 1.6 mm 1 mps 737 mmHg 96%
    20:00 +16°C° 0.6 mm 1 mps 737 mmHg 96%
    21:00 +15°C° 0.6 mm 1 mps 737 mmHg 96%
    22:00 +15°C° 0.6 mm 1 mps 737 mmHg 96%
    23:00 +15°C° 0 mm 1 mps 737 mmHg 96%

    Tomorrow, 20 August, Sunday

    Time Temperature Precipitation Wind Pressure Humidity
    00:00 +15°C° 0 mm 1 mps 737 mmHg 96%
    01:00 +14°C° 0 mm 1 mps 737 mmHg 96%
    02:00 +14°C° 0 mm 1 mps 737 mmHg 96%
    03:00 +14°C° 0 mm 1 mps 737 mmHg 96%
    04:00 +14°C° 0 mm 1 mps 737 mmHg 95%
    05:00 +14°C° 0.1 mm 1 mps 737 mmHg 95%
    06:00 +15°C° 0.1 mm 1 mps 737 mmHg 94%
    07:00 +15°C° 0.1 mm 2 mps 737 mmHg 94%
    08:00 +16°C° 0.2 mm 2 mps 737 mmHg 88%
    09:00 +17°C° 0.2 mm 2 mps 737 mmHg 82%
    10:00 +18°C° 0.2 mm 3 mps 737 mmHg 76%
    11:00 +19°C° 0.3 mm 3 mps 737 mmHg 72%
    12:00 +20°C° 0.3 mm 3 mps 737 mmHg 68%
    13:00 +21°C° 0.3 mm 3 mps 737 mmHg 63%
    14:00 +20°C° 0.3 mm 3 mps 737 mmHg 65%
    15:00 +20°C° 0.3 mm 3 mps 737 mmHg 66%
    16:00 +20°C° 0.3 mm 3 mps 737 mmHg 67%
    17:00 +19°C° 0.2 mm 3 mps 737 mmHg 74%
    18:00 +17°C° 0.2 mm 2 mps 737 mmHg 81%
    19:00 +16°C° 0.2 mm 2 mps 738 mmHg 87%
    20:00 +15°C° 0 mm 2 mps 738 mmHg 89%
    21:00 +14°C° 0 mm 2 mps 738 mmHg 91%
    22:00 +13°C° 0 mm 2 mps 739 mmHg 92%
    23:00 +13°C° 0 mm 2 mps 739 mmHg 92%

    Day after tomorrow, 21 August, Monday

    Time Temperature Precipitation Wind Pressure Humidity
    00:00 +12°C° 0 mm 2 mps 739 mmHg 93%
    01:00 +12°C° 0 mm 1 mps 739 mmHg 93%
    02:00 +12°C° 0 mm 1 mps 739 mmHg 93%
    03:00 +11°C° 0 mm 1 mps 738 mmHg 93%
    04:00 +11°C° 0 mm 1 mps 738 mmHg 94%
    05:00 +12°C° 0 mm 1 mps 738 mmHg 91%
    06:00 +13°C° 0 mm 1 mps 739 mmHg 89%
    07:00 +14°C° 0 mm 1 mps 739 mmHg 87%
    08:00 +15°C° 0.1 mm 2 mps 739 mmHg 80%
    09:00 +17°C° 0.1 mm 2 mps 739 mmHg 72%
    10:00 +19°C° 0.1 mm 3 mps 738 mmHg 65%
    11:00 +19°C° 0.1 mm 3 mps 738 mmHg 61%
    12:00 +20°C° 0.1 mm 3 mps 738 mmHg 58%
    13:00 +21°C° 0.1 mm 3 mps 737 mmHg 55%
    14:00 +21°C° 0 mm 3 mps 737 mmHg 56%
    15:00 +21°C° 0 mm 3 mps 737 mmHg 56%
    16:00 +21°C° 0 mm 3 mps 737 mmHg 56%
    17:00 +19°C° 0 mm 2 mps 737 mmHg 65%
    18:00 +18°C° 0 mm 2 mps 737 mmHg 73%
    19:00 +16°C° 0 mm 1 mps 737 mmHg 82%
    20:00 +15°C° 0 mm 1 mps 737 mmHg 84%
    21:00 +14°C° 0 mm 1 mps 738 mmHg 86%
    22:00 +13°C° 0 mm 1 mps 738 mmHg 88%
    23:00 +13°C° 0 mm 1 mps 738 mmHg 89%

    22 August, Tuesday

    Time Temperature Precipitation Wind Pressure Humidity
    00:00 +13°C° 0 mm 1 mps 738 mmHg 90%
    01:00 +12°C° 0 mm 1 mps 738 mmHg 91%
    02:00 +12°C° 0 mm 1 mps 738 mmHg 91%
    03:00 +12°C° 0 mm 1 mps 738 mmHg 92%
    04:00 +11°C° 0 mm 1 mps 738 mmHg 92%
    05:00 +12°C° 0 mm 1 mps 738 mmHg 89%
    06:00 +12°C° 0 mm 0 mps 738 mmHg 86%
    07:00 +13°C° 0 mm 0 mps 738 mmHg 83%
    08:00 +16°C° 0 mm 0 mps 738 mmHg 74%
    09:00 +20°C° 0 mm 1 mps 738 mmHg 66%
    10:00 +22°C° 0 mm 1 mps 737 mmHg 57%
    11:00 +23°C° 0 mm 1 mps 737 mmHg 53%
    12:00 +24°C° 0 mm 1 mps 737 mmHg 49%
    13:00 +25°C° 0 mm 1 mps 736 mmHg 45%
    14:00 +25°C° 0 mm 1 mps 736 mmHg 46%
    15:00 +24°C° 0 mm 1 mps 735 mmHg 47%
    16:00 +24°C° 0 mm 1 mps 735 mmHg 47%
    17:00 +22°C° 0 mm 1 mps 735 mmHg 56%
    18:00 +20°C° 0 mm 1 mps 735 mmHg 65%
    19:00 +16°C° 0 mm 0 mps 735 mmHg 74%
    20:00 +16°C° 0 mm 1 mps 735 mmHg 76%
    21:00 +15°C° 0 mm 1 mps 735 mmHg 78%
    22:00 +14°C° 0 mm 1 mps 735 mmHg 80%
    23:00 +14°C° 0 mm 1 mps 735 mmHg 82%

    23 August, Wednesday

    Time Temperature Precipitation Wind Pressure Humidity
    00:00 +14°C° 0 mm 1 mps 735 mmHg 83%
    01:00 +13°C° 0 mm 1 mps 735 mmHg 85%
    02:00 +13°C° 0 mm 1 mps 735 mmHg 86%
    03:00 +13°C° 0 mm 1 mps 734 mmHg 86%
    04:00 +13°C° 0 mm 1 mps 734 mmHg 87%
    05:00 +13°C° 0 mm 0 mps 735 mmHg 83%
    06:00 +14°C° 0 mm 0 mps 735 mmHg 80%
    07:00 +15°C° 0 mm 0 mps 735 mmHg 76%
    08:00 +18°C° 0 mm 0 mps 735 mmHg 69%
    09:00 +22°C° 0 mm 1 mps 735 mmHg 61%
    10:00 +24°C° 0 mm 1 mps 735 mmHg 54%
    11:00 +26°C° 0 mm 1 mps 735 mmHg 51%
    12:00 +27°C° 0 mm 1 mps 735 mmHg 48%
    13:00 +28°C° 0 mm 1 mps 734 mmHg 45%
    14:00 +28°C° 0 mm 1 mps 734 mmHg 46%
    15:00 +27°C° 0 mm 1 mps 734 mmHg 48%
    16:00 +27°C° 0 mm 1 mps 734 mmHg 49%
    17:00 +25°C° 0 mm 1 mps 734 mmHg 58%
    18:00 +23°C° 0 mm 1 mps 734 mmHg 67%
    19:00 +19°C° 0 mm 0 mps 734 mmHg 76%
    20:00 +20°C° 0 mm 1 mps 734 mmHg 78%
    21:00 +19°C° 0 mm 1 mps 734 mmHg 79%
    22:00 +19°C° 0 mm 1 mps 735 mmHg 80%
    23:00 +18°C° 0 mm 1 mps 735 mmHg 80%

    24 August, Thursday

    Time Temperature Precipitation Wind Pressure Humidity
    00:00 +18°C° 0 mm 1 mps 735 mmHg 80%
    01:00 +18°C° 0 mm 1 mps 735 mmHg 80%
    02:00 +18°C° 0 mm 1 mps 735 mmHg 79%
    03:00 +18°C° 0 mm 1 mps 735 mmHg 79%
    04:00 +18°C° 0 mm 1 mps 735 mmHg 78%
    05:00 +19°C° 0 mm 1 mps 735 mmHg 77%
    06:00 +20°C° 0 mm 1 mps 735 mmHg 75%
    07:00 +21°C° 0 mm 1 mps 735 mmHg 74%
    08:00 +23°C° 0 mm 1 mps 735 mmHg 67%
    09:00 +26°C° 0 mm 1 mps 736 mmHg 60%
    10:00 +28°C° 0 mm 1 mps 736 mmHg 53%
    11:00 +29°C° 0 mm 1 mps 735 mmHg 52%
    12:00 +30°C° 0 mm 2 mps 735 mmHg 50%
    13:00 +31°C° 0 mm 2 mps 735 mmHg 48%
    14:00 +30°C° 0 mm 2 mps 735 mmHg 50%
    15:00 +30°C° 0 mm 2 mps 735 mmHg 53%
    16:00 +30°C° 0 mm 2 mps 735 mmHg 55%
    17:00 +28°C° 0.2 mm 2 mps 735 mmHg 64%
    18:00 +26°C° 0.2 mm 1 mps 735 mmHg 72%
    19:00 +24°C° 0.2 mm 1 mps 735 mmHg 81%
    20:00 +23°C° 0 mm 1 mps 735 mmHg 83%
    21:00 +23°C° 0 mm 1 mps 736 mmHg 84%
    22:00 +22°C° 0 mm 1 mps 736 mmHg 85%
    23:00 +22°C° 0 mm 1 mps 736 mmHg 87%
    Show more